Regional Weather Roundup
Issued by NWS

Home | Current Version | Previous Version | Graphics & Text | Print | Product List | Glossary On
Versions: 1 2 3 4 5 6 7 8 9 10 11 12 13 14 15 16 17 18 19 20 21 22 23 24 25 26 27 28 29 30 31 32 33 34 35 36 37 38 39 40 41 42 43 44 45 46 47 48 49 50
000
ASUS43 KLMK 120802
RWRKY
KENTUCKY REGIONAL WEATHER ROUNDUP
NATIONAL WEATHER SERVICE LOUISVILLE KY
300 AM EST TUE DEC 12 2017

NOTE "FAIR" INDICATES FEW OR NO CLOUDS BELOW 12,000 FEET
WITH NO SIGNIFICANT WEATHER AND/OR OBSTRUCTIONS TO VISIBILITY.

KYZ001>023-026-027-061>063-070>075-120900-
WESTERN AND SOUTH CENTRAL KENTUCKY

CITY           SKY/WX    TMP DP  RH WIND       PRES   REMARKS
PADUCAH        CLOUDY    47  32  56 N18G29    30.00R
HENDERSON      CLOUDY    41  34  76 NW13      29.98R
OWENSBORO      CLOUDY    42  34  73 NW23G29   29.95R
HOPKINSVILLE   CLOUDY    46  32  57 NW12      29.94R
BOWLING GREEN  MOCLDY    46  32  58 NW14G25   29.91R
GLASGOW        NOT AVBL
$$

KYZ024-025-028>034-038-045-046-053-120900-
NORTH CENTRAL KENTUCKY

CITY           SKY/WX    TMP DP  RH WIND       PRES   REMARKS
LOUISVILLE/SDF CLOUDY    42  30  62 NW17G31   29.87R
LOUISVILLE/LOU CLOUDY    42  31  64 NW16G31   29.87R
FORT KNOX      CLOUDY    42  31  66 W15G22    29.86R
$$

KYZ035>037-039>044-047>052-055>060-089>105-120900-
NORTHEAST KENTUCKY

CITY           SKY/WX    TMP DP  RH WIND       PRES   REMARKS
LEXINGTON      CLOUDY    42  30  62 W18G28    29.82R
COVINGTON      CLOUDY    37  30  75 NW16      29.80R WCI  28
FRANKFORT      CLOUDY    42  28  57 W13G20    29.82R
$$

KYZ054-064>069-076>088-106>120-120900-
SOUTHEAST KENTUCKY

CITY           SKY/WX    TMP DP  RH WIND       PRES   REMARKS
JACKSON        PTCLDY    42  27  55 W13G25    29.79R
LONDON         MOCLDY    43  28  55 W20G29    29.83R
SOMERSET       NOT AVBL
MIDDLESBORO    CLOUDY    46  28  48 NW9G18    29.84R
MONTICELLO     CLOUDY    43  30  60 W15       29.88R
$$





USA.gov is the U.S. government's official web portal to all federal, state and local government web resources and services.